GFA973 OERK-OEGS

Flight info

Callsign GFA973
Flight time 0h 41m
Altitude 26000
Route IVONU2C/33L IVONU Z710 GAS
Aircraft A320/M-SDE3FGHIRWY/LB1

Departure

Time 2026-04-22 20:53
Airport King Khalid International Airport (OERK)

Arrival

Time 2026-04-22 21:34
Airport Prince Naif bin Abdulaziz International Airport (OEGS)
Time Latitude Longitude Altitude Speed Heading
2026-04-22 20:26 24.95674 46.70668 1989 ft 0 kts 237°
2026-04-22 20:45 24.95681 46.70679 1990 ft 2 kts 237°
2026-04-22 20:45 24.95690 46.70694 1986 ft 2 kts 237°
2026-04-22 20:45 24.95699 46.70710 1984 ft 2 kts 237°
2026-04-22 20:45 24.95708 46.70725 1983 ft 2 kts 235°
2026-04-22 20:46 24.95731 46.70753 1984 ft 2 kts 203°
2026-04-22 20:46 24.95747 46.70759 1980 ft 2 kts 189°
2026-04-22 20:46 24.95764 46.70759 1980 ft 2 kts 154°
2026-04-22 20:47 24.95765 46.70758 1980 ft 0 kts 152°
2026-04-22 20:47 24.95749 46.70769 1983 ft 5 kts 150°
2026-04-22 20:47 24.95703 46.70799 1982 ft 9 kts 144°
2026-04-22 20:48 24.95661 46.70828 1983 ft 6 kts 150°
2026-04-22 20:48 24.95597 46.70866 1983 ft 15 kts 152°
2026-04-22 20:48 24.95502 46.70927 1983 ft 17 kts 146°
2026-04-22 20:48 24.95393 46.70994 1983 ft 18 kts 149°
2026-04-22 20:49 24.95350 46.71105 1989 ft 16 kts 73°
2026-04-22 20:49 24.95330 46.71210 1983 ft 15 kts 147°
2026-04-22 20:49 24.95231 46.71269 2065 ft 17 kts 151°
2026-04-22 20:49 24.95120 46.71338 2065 ft 19 kts 152°
2026-04-22 20:50 24.95005 46.71413 2065 ft 20 kts 146°
2026-04-22 20:50 24.94881 46.71490 2065 ft 21 kts 148°
2026-04-22 20:50 24.94792 46.71613 2065 ft 21 kts 94°
2026-04-22 20:50 24.94718 46.71735 2062 ft 20 kts 150°
2026-04-22 20:51 24.94588 46.71816 2065 ft 22 kts 152°
2026-04-22 20:51 24.94444 46.71899 2065 ft 24 kts 149°
2026-04-22 20:51 24.94315 46.71999 2065 ft 18 kts 123°
2026-04-22 20:51 24.94329 46.72113 2064 ft 16 kts 61°
2026-04-22 20:52 24.94406 46.72208 2057 ft 19 kts 19°
2026-04-22 20:52 24.94567 46.72169 2056 ft 40 kts 332°
2026-04-22 20:52 24.95050 46.71869 2054 ft 117 kts 329°
2026-04-22 20:52 24.95950 46.71302 2108 ft 172 kts 333°
2026-04-22 20:53 24.97023 46.70639 2756 ft 185 kts 332°
2026-04-22 20:53 24.98203 46.69965 3519 ft 198 kts 337°
2026-04-22 20:53 24.99541 46.69386 4254 ft 215 kts 342°
2026-04-22 20:53 25.01001 46.68810 4992 ft 228 kts 342°
2026-04-22 20:54 25.02552 46.68211 5402 ft 245 kts 341°
2026-04-22 20:54 25.04216 46.67568 5858 ft 262 kts 340°
2026-04-22 20:54 25.05984 46.66876 6340 ft 278 kts 339°
2026-04-22 20:54 25.07656 46.65800 6985 ft 280 kts 313°
2026-04-22 20:55 25.08690 46.64013 7702 ft 278 kts 285°
2026-04-22 20:55 25.08865 46.61921 8395 ft 276 kts 259°
2026-04-22 20:55 25.08508 46.59830 9097 ft 279 kts 257°
2026-04-22 20:55 25.08128 46.57724 9885 ft 279 kts 256°
2026-04-22 20:56 25.07759 46.55608 10483 ft 287 kts 259°
2026-04-22 20:56 25.07621 46.53347 10800 ft 304 kts 266°
2026-04-22 20:56 25.07571 46.50953 11085 ft 321 kts 266°
2026-04-22 20:56 25.07522 46.48463 11373 ft 335 kts 266°
2026-04-22 20:57 25.07472 46.45862 11905 ft 341 kts 267°
2026-04-22 20:57 25.07421 46.43238 12560 ft 343 kts 267°
2026-04-22 20:57 25.07370 46.40602 13216 ft 345 kts 267°
2026-04-22 20:57 25.07316 46.37946 13853 ft 347 kts 267°
2026-04-22 20:58 25.07259 46.35275 14420 ft 349 kts 267°
2026-04-22 20:58 25.07201 46.32583 15003 ft 351 kts 267°
2026-04-22 20:58 25.07143 46.29887 15578 ft 352 kts 266°
2026-04-22 20:58 25.07084 46.27179 16165 ft 354 kts 266°
2026-04-22 20:59 25.07023 46.24452 16737 ft 356 kts 266°
2026-04-22 20:59 25.06961 46.21717 17304 ft 358 kts 266°
2026-04-22 20:59 25.06898 46.18966 17873 ft 360 kts 266°
2026-04-22 20:59 25.06834 46.16202 18418 ft 362 kts 266°
2026-04-22 21:00 25.06768 46.13410 18901 ft 364 kts 266°
2026-04-22 21:00 25.06702 46.10651 19377 ft 366 kts 266°
2026-04-22 21:00 25.06633 46.07837 19865 ft 368 kts 266°
2026-04-22 21:00 25.06565 46.05012 20351 ft 370 kts 266°
2026-04-22 21:01 25.06500 46.02173 20836 ft 371 kts 266°
2026-04-22 21:01 25.06437 45.99312 21317 ft 373 kts 266°
2026-04-22 21:01 25.06372 45.96438 21775 ft 375 kts 266°
2026-04-22 21:01 25.06303 45.93555 22233 ft 377 kts 266°
2026-04-22 21:02 25.06230 45.90653 22647 ft 379 kts 266°
2026-04-22 21:02 25.06157 45.87731 23078 ft 382 kts 266°
2026-04-22 21:02 25.06084 45.84833 23475 ft 384 kts 266°
2026-04-22 21:02 25.06009 45.81885 23821 ft 385 kts 266°
2026-04-22 21:03 25.05934 45.78934 23941 ft 385 kts 267°
2026-04-22 21:03 25.05855 45.75987 23977 ft 385 kts 266°
2026-04-22 21:03 25.05777 45.73036 23975 ft 385 kts 267°
2026-04-22 21:03 25.05742 45.70084 23972 ft 385 kts 271°
2026-04-22 21:04 25.06128 45.67150 23972 ft 389 kts 281°
2026-04-22 21:04 25.07026 45.64323 23971 ft 393 kts 291°
2026-04-22 21:04 25.08220 45.61604 23969 ft 394 kts 291°
2026-04-22 21:04 25.09415 45.58885 23971 ft 394 kts 291°
2026-04-22 21:05 25.10605 45.56163 23970 ft 394 kts 291°
2026-04-22 21:05 25.11778 45.53474 23969 ft 394 kts 291°
2026-04-22 21:05 25.12965 45.50748 23968 ft 394 kts 291°
2026-04-22 21:05 25.14150 45.48023 23965 ft 394 kts 291°
2026-04-22 21:06 25.15335 45.45301 23964 ft 393 kts 291°
2026-04-22 21:06 25.16524 45.42579 23963 ft 393 kts 291°
2026-04-22 21:06 25.17714 45.39857 23966 ft 393 kts 291°
2026-04-22 21:06 25.18897 45.37137 23968 ft 393 kts 291°
2026-04-22 21:07 25.20078 45.34414 23967 ft 393 kts 291°
2026-04-22 21:07 25.21257 45.31690 23965 ft 393 kts 291°
2026-04-22 21:07 25.22437 45.28963 23970 ft 393 kts 291°
2026-04-22 21:07 25.23620 45.26235 23964 ft 393 kts 291°
2026-04-22 21:08 25.24804 45.23513 23966 ft 393 kts 291°
2026-04-22 21:08 25.25989 45.20786 23962 ft 393 kts 291°
2026-04-22 21:08 25.27171 45.18061 23964 ft 393 kts 291°
2026-04-22 21:08 25.28352 45.15333 23965 ft 394 kts 291°
2026-04-22 21:09 25.29531 45.12602 23966 ft 394 kts 291°
2026-04-22 21:09 25.30708 45.09875 23967 ft 393 kts 291°
2026-04-22 21:09 25.31887 45.07137 23967 ft 394 kts 291°
2026-04-22 21:09 25.33062 45.04406 23963 ft 394 kts 291°
2026-04-22 21:10 25.34240 45.01668 23966 ft 394 kts 291°
2026-04-22 21:10 25.35416 44.98937 23962 ft 394 kts 291°
2026-04-22 21:10 25.36594 44.96198 23967 ft 394 kts 291°
2026-04-22 21:10 25.37761 44.93492 23967 ft 394 kts 291°
2026-04-22 21:11 25.38942 44.90755 23967 ft 394 kts 291°
2026-04-22 21:11 25.40124 44.88015 23965 ft 394 kts 291°
2026-04-22 21:11 25.41301 44.85277 23964 ft 394 kts 291°
2026-04-22 21:11 25.42474 44.82536 23958 ft 394 kts 290°
2026-04-22 21:12 25.43648 44.79789 23963 ft 394 kts 291°
2026-04-22 21:12 25.44820 44.77049 23961 ft 394 kts 291°
2026-04-22 21:12 25.45999 44.74296 23962 ft 394 kts 291°
2026-04-22 21:12 25.47156 44.71594 23958 ft 394 kts 291°
2026-04-22 21:13 25.48329 44.68851 23961 ft 394 kts 291°
2026-04-22 21:13 25.49503 44.66111 23958 ft 394 kts 290°
2026-04-22 21:13 25.50677 44.63371 23957 ft 394 kts 290°
2026-04-22 21:13 25.51854 44.60630 23954 ft 394 kts 291°
2026-04-22 21:14 25.53276 44.58011 23956 ft 400 kts 301°
2026-04-22 21:14 25.55143 44.55693 23955 ft 408 kts 311°
2026-04-22 21:14 25.57321 44.53647 23953 ft 411 kts 314°
2026-04-22 21:14 25.59519 44.51619 23956 ft 411 kts 314°
2026-04-22 21:15 25.61715 44.49592 23955 ft 410 kts 314°
2026-04-22 21:15 25.63902 44.47568 23951 ft 410 kts 314°
2026-04-22 21:15 25.66093 44.45534 23954 ft 410 kts 313°
2026-04-22 21:15 25.68278 44.43500 23903 ft 409 kts 314°
2026-04-22 21:16 25.70436 44.41497 23733 ft 400 kts 313°
2026-04-22 21:16 25.72555 44.39533 23273 ft 395 kts 313°
2026-04-22 21:16 25.74650 44.37586 22723 ft 391 kts 313°
2026-04-22 21:16 25.76727 44.35653 22205 ft 388 kts 313°
2026-04-22 21:17 25.78786 44.33734 21704 ft 385 kts 313°
2026-04-22 21:17 25.80832 44.31827 21209 ft 382 kts 313°
2026-04-22 21:17 25.82863 44.29934 20723 ft 380 kts 313°
2026-04-22 21:17 25.84851 44.28081 20243 ft 377 kts 313°
2026-04-22 21:18 25.86853 44.26214 19763 ft 375 kts 313°
2026-04-22 21:18 25.88842 44.24359 19294 ft 372 kts 313°
2026-04-22 21:18 25.90820 44.22515 18823 ft 370 kts 313°
2026-04-22 21:18 25.92787 44.20677 18364 ft 368 kts 313°
2026-04-22 21:19 25.94739 44.18854 17851 ft 366 kts 313°
2026-04-22 21:19 25.96685 44.17037 17358 ft 363 kts 313°
2026-04-22 21:19 25.98614 44.15235 16877 ft 361 kts 313°
2026-04-22 21:19 26.00529 44.13445 16406 ft 358 kts 313°
2026-04-22 21:20 26.02431 44.11667 15943 ft 356 kts 313°
2026-04-22 21:20 26.04316 44.09903 15495 ft 353 kts 313°
2026-04-22 21:20 26.06190 44.08146 15045 ft 351 kts 313°
2026-04-22 21:20 26.06794 44.07580 14903 ft 350 kts 313°
2026-04-22 21:21 26.08360 44.06115 14532 ft 348 kts 313°
2026-04-22 21:21 26.10209 44.04382 14101 ft 346 kts 313°
2026-04-22 21:21 26.12043 44.02660 13668 ft 344 kts 313°
2026-04-22 21:21 26.13843 44.00969 13192 ft 342 kts 313°
2026-04-22 21:22 26.15659 43.99263 12700 ft 340 kts 314°
2026-04-22 21:22 26.17463 43.97569 12210 ft 339 kts 314°
2026-04-22 21:22 26.19261 43.95880 11731 ft 337 kts 314°
2026-04-22 21:22 26.21047 43.94204 11254 ft 335 kts 314°
2026-04-22 21:23 26.22824 43.92537 10778 ft 333 kts 315°
2026-04-22 21:23 26.24586 43.90880 10314 ft 331 kts 315°
2026-04-22 21:23 26.26337 43.89233 9924 ft 326 kts 316°
2026-04-22 21:23 26.28038 43.87635 9804 ft 313 kts 316°
2026-04-22 21:24 26.29671 43.86099 9676 ft 301 kts 316°
2026-04-22 21:24 26.31243 43.84623 9494 ft 291 kts 316°
2026-04-22 21:24 26.32780 43.83175 9120 ft 288 kts 316°
2026-04-22 21:24 26.34305 43.81732 8677 ft 288 kts 316°
2026-04-22 21:25 26.35833 43.80285 8244 ft 289 kts 317°
2026-04-22 21:25 26.37347 43.78853 7817 ft 289 kts 318°
2026-04-22 21:25 26.38876 43.77406 7372 ft 289 kts 318°
2026-04-22 21:25 26.40417 43.75949 6929 ft 290 kts 319°
2026-04-22 21:26 26.41957 43.74492 6499 ft 291 kts 320°
2026-04-22 21:26 26.43501 43.73032 6041 ft 291 kts 320°
2026-04-22 21:26 26.45046 43.71573 5609 ft 291 kts 321°
2026-04-22 21:26 26.46567 43.70136 5374 ft 281 kts 321°
2026-04-22 21:27 26.48061 43.68700 4753 ft 288 kts 317°
2026-04-22 21:27 26.49205 43.66830 4090 ft 298 kts 290°
2026-04-22 21:27 26.49532 43.64597 3843 ft 286 kts 264°
2026-04-22 21:27 26.49076 43.62538 3787 ft 263 kts 241°
2026-04-22 21:28 26.48066 43.60969 3795 ft 238 kts 219°
2026-04-22 21:28 26.46776 43.59980 3795 ft 214 kts 199°
2026-04-22 21:28 26.45389 43.59528 3798 ft 207 kts 181°
2026-04-22 21:28 26.43977 43.59559 3804 ft 199 kts 163°
2026-04-22 21:29 26.42750 43.59993 3829 ft 182 kts 149°
2026-04-22 21:29 26.41702 43.60746 3801 ft 178 kts 135°
2026-04-22 21:29 26.40874 43.61763 3799 ft 177 kts 122°
2026-04-22 21:29 26.40307 43.62975 3805 ft 176 kts 109°
2026-04-22 21:30 26.40032 43.64297 3803 ft 175 kts 98°
2026-04-22 21:30 26.39878 43.65643 3803 ft 170 kts 98°
2026-04-22 21:30 26.39735 43.66847 3804 ft 147 kts 98°
2026-04-22 21:30 26.39598 43.67983 3806 ft 148 kts 98°
2026-04-22 21:31 26.39460 43.69118 3808 ft 148 kts 98°
2026-04-22 21:31 26.39323 43.70254 3806 ft 148 kts 99°
2026-04-22 21:31 26.39232 43.71009 3806 ft 148 kts 99°
2026-04-22 21:31 26.38932 43.72094 3722 ft 148 kts 120°
2026-04-22 21:32 26.37892 43.73066 3541 ft 148 kts 149°
2026-04-22 21:32 26.37290 43.73408 3446 ft 146 kts 148°
2026-04-22 21:32 26.36104 43.74086 3199 ft 144 kts 147°
2026-04-22 21:32 26.35198 43.74605 3001 ft 147 kts 147°
2026-04-22 21:33 26.34588 43.74955 2854 ft 146 kts 147°
2026-04-22 21:33 26.33691 43.75470 2581 ft 144 kts 148°
2026-04-22 21:33 26.32799 43.75985 2454 ft 145 kts 151°
2026-04-22 21:33 26.31901 43.76490 2244 ft 144 kts 149°
2026-04-22 21:34 26.31023 43.76993 2137 ft 134 kts 150°
2026-04-22 21:34 26.30350 43.77382 2133 ft 78 kts 154°
2026-04-22 21:34 26.30028 43.77560 2132 ft 27 kts 152°
2026-04-22 21:34 26.29871 43.77646 2133 ft 42 kts 155°
2026-04-22 21:35 26.29586 43.77728 2135 ft 40 kts 181°
2026-04-22 21:35 26.29442 43.77655 2136 ft 16 kts 295°
2026-04-22 21:35 26.29553 43.77575 2135 ft 25 kts 333°
2026-04-22 21:35 26.29741 43.77469 2135 ft 36 kts 333°
2026-04-22 21:36 26.29985 43.77331 2134 ft 41 kts 333°
2026-04-22 21:36 26.30234 43.77191 2136 ft 39 kts 333°
2026-04-22 21:36 26.30401 43.77090 2136 ft 10 kts 309°
2026-04-22 21:36 26.30408 43.77059 2136 ft 2 kts 270°
2026-04-22 21:37 26.30402 43.77045 2136 ft 5 kts 244°
2026-04-22 21:37 26.30392 43.77022 2137 ft 4 kts 242°
2026-04-22 21:37 26.30387 43.77012 2136 ft 0 kts 242°